Overview Statistics Trail Chart Weather Telemetry Raw packets
 

This is the latest recevied weather packets stored in our database for station/object AG1T-20. If no packets are shown the sender has not sent any weather packets the latest 10 day(s).

<< 1 2 3 4 5 6 7 >>
Time Temp. Humidity Pressure Rain* Wind** Luminosity Snow
1788570004 29.44° C 21% 1015.9 hPa 0 mm - 37 W/m² -
1788569404 28.89° C 21% 1016.1 hPa 0 mm - 39 W/m² -
1788568804 28.89° C 21% 1016 hPa 0 mm - 46 W/m² -
1788568204 30° C 20% 1015.6 hPa 0 mm - 52 W/m² -
1788567605 30.56° C 19% 1015.1 hPa 0 mm - 59 W/m² -
1788567004 30° C 20% 1015.6 hPa 0 mm - 67 W/m² -
1788566404 30.56° C 19% 1015.4 hPa 0 mm - 76 W/m² -
1788565804 29.44° C 19% 1016.1 hPa 0 mm - 95 W/m² -
1788565204 29.44° C 20% 1016 hPa 0 mm - 113 W/m² -
1788564605 28.89° C 20% 1016.3 hPa 0 mm - 128 W/m² -
1788564004 28.89° C 21% 1016.2 hPa 0 mm - 149 W/m² -
1788563404 28.89° C 21% 1016.4 hPa 0 mm - 173 W/m² -
1788562807 29.44° C 23% 1016.2 hPa 0 mm - 199 W/m² -
1788562204 30° C 21% 1016 hPa 0 mm - 228 W/m² -
1788561605 29.44° C 21% 1016.3 hPa 0 mm - 257 W/m² -
1788561004 28.89° C 21% 1016.6 hPa 0 mm - 288 W/m² -
1788560404 28.89° C 20% 1016.8 hPa 0 mm - 321 W/m² -
1788559804 28.89° C 20% 1017 hPa 0 mm - 352 W/m² -
1788559204 28.33° C 23% 1017.1 hPa 0 mm - 383 W/m² -
1788558604 28.33° C 22% 1017.3 hPa 0 mm - 417 W/m² -
1788558004 28.33° C 23% 1017.1 hPa 0 mm - 448 W/m² -
1788557404 28.89° C 20% 1017.2 hPa 0 mm - 478 W/m² -
1788556804 28.33° C 22% 1017.5 hPa 0 mm - 512 W/m² -
1788556204 28.89° C 23% 1017.1 hPa 0 mm - 534 W/m² -
1788555605 28.33° C 24% 1017.6 hPa 0 mm - 561 W/m² -

* Rain latest hour (hover to see other rain measurements)
** Current wind speed in m/s (hover to see current wind gust speed)